Showing default

DIADEME 1, 2674

Orbit data source: Space-Track

DIADEME 1, 2674 is a payload satellite owned by CNES (FR) in LEO that was launched on Wed, 08 Feb 1967 UTC via a DIAMANT A launch vehicle from the Hamma Guira Space Track Range (HGSTR). Payload-class satellites include a variety of spacecraft equipped with specific instruments for various scientific and technological missions. These include communications satellites like Starlink; space stations such as the ISS; scientific satellites like the Hubble; Earth observation satellites from companies like Planet Labs, Umbra, and HawkEye 360; GPS; miniature CubeSats for education and research; and military/defense satellites.

Loading next visibility...
Identifier
2674, 1967-011A
Orbit
LEO
Country
Flag of FRFR
Related business
Manufacturer
CNES
Mission
Spacecraft
Bus & Motor
D-1, Unknown motor
Mass
23 kg wet, 23 kg dry
Launch date (UTC)
1967-02-08 (59 years ago)
Launch vehicle
DIAMANT A
Launch site
Hamma Guira Space Track Range (HGSTR)
Object type
Payload
Rocket body
Debris
Shape & HBR
Unknown
Radar Cross Section
Medium (>0.1 m² and <1 m²)

Expand to show TLE details & history
Last TLE update: 13 hours ago

TLE from 13 hours ago
0 DIADEME 1
1 02674U 67011A   25309.67786761  .00009458  00000-0  10672-2 0  9995
2 02674  39.9164  83.5186 0213694 150.9169 210.3710 14.71306593 57139
Epoch: 2025-11-05T16:16Z
TLE epoch observation values (Epoch: 2025-11-05T16:16:07.761Z)
Latitude
0.00002°
Longitude
154.33919°
Altitude
786.83 km
Speed
7.393 km/s
True Right ascension
05h 34m 04s
True Declination
0° 00' 00"
Sunlit
Object was in full shadow at epoch
Visualization orbit readout
Latitude
Unknown
Longitude
Unknown
Altitude
Unknown
Speed
Unknown
Apparent Right ascension
Unknown
Apparent Declination
Unknown
Sunlit
N/A
Visualization observer readout
Local Sidereal Time
01:15:34
Azimuth
Unknown
Elevation
Unknown
Doppler factor
Unknown
Orbital elements
Apogee altitude
809.686 km
Perigee altitude
508.915 km
Semi-major axis
7,037.437 km
Eccentricity
0.02137
Inclination
39.9164°
RAAN
83.5186°
Arg. of periapsis
150.9169°
True anomaly
209.16092°
Mean anomaly
210.371°
Eccentric anomaly
209.7632°
Mean motion
3.67639 °/min
Orbital period
97.92 mins
BSTAR
0.0010672
Loading maneuver chart data...
Computing Atmospheric mass density...

Documentation

Showing up to 5 results
|